[Date Prev][Date Next][Thread Prev][Thread Next] - [Date Index][Thread Index][Author Index]

2 Line ISS Keps 4-14



ISS
1 25544U 98067A   02104.18806315  .00023329  00000-0  28505-3 0  3030
2 25544  51.6393  14.4623 0003172   3.4769 117.4155 15.60309434194048


----
Via the sarex mailing list at AMSAT.ORG courtesy of AMSAT-NA.
To unsubscribe, send "unsubscribe sarex" to Majordomo@amsat.org



AMSAT Top AMSAT Home